SCP
-0 -0 -0 -0 -0 -0 -0 0 0 -0 -0 0 0 0 -0 -0 -0 -0 -0 -0 -0 -0 -0 -0 -0 -0 -0 -0 -0 -0 -0 -0 -0 -0 -0 -0 -0 0 -0 -0 0 0 0
-0 -0 -0 -0 -0 -0 -0 0 -0 -0 -0 -0 -0 0 0 0 -0 -0 -0 -0 -0 -0 -0 -0 -0 -0 -0 -0 -0 -0 -0 -0 0 -0 0 -0 0 0 0 -0 0 0 0
-0 -0 -0 -0 -0 -0 -0 -0 0 -0 -0 -0 -0 -0 0 0 -0 -0 -0 -0 -0 -0 -0 -0 -0 -0 -0 -0 -0 -0 -0 0 -0 -0 -0 0 0 0 0 0 0 0 0
-0 -0 -0 -0 -0 -0 -0 0 0 -0 -0 -0 -0 -0 -0 -0 -0 -0 -0 -0 -0 -0 -0 -0 -0 -0 -0 -0 -0 -0 0 0 -0 0 0 0 0 0 0 0 0 0 0
-0 -0 -0 -0 -0 -0 -0 -0 -0 -0 -0 -0 -0 -0 -0 -0 -0 -0 -0 -0 -0 -0 -0 -0 -0 -0 -0 -0 -0 -0 0 0 0 0 0 0 0 0 0 0 0 0 0
-0 -0 -0 -0 -0 -0 -0 -0 -0 -0 -0 -0 -0 -0 -0 -0 -0 -0 -0 -0 -0 -0 -0 -0 -0 -0 -0 -0 -0 -0 0 0 -0 0 0 0 0 0 0 0 0 0 0
-0 -0 -0 -0 -0 -0 -0 -0 -0 -0 -0 -0 -0 0 -0 -0 -0 -0 -0 -0 -0 -0 -0 -0 -0 -0 -0 -0 -0 -0 0 -0 0 -0 0 0 0 0 0 0 0 0 0
-0 -0 -0 -0 -0 -0 -0 -0 -0 -0 -0 -0 -0 -0 0 0 -0 -0 -0 -0 -0 0 0 0 0 0 -0 -0 0 0 -0 -0 -0 0 0 0 0 0 0 0 0 0 0
-0 -0 -0 -0 -0 0 -0 0 0 0 -0 -0 0 0 0 0 0 0 0 0 0 0 0 0 0 0 0 -0 0 0 -0 -0 -0 0 0 0 0 0 0 0 0 0 0
-0 -0 -0 -0 -0 -0 -0 -0 -0 0 0 0 0 0 0 0 0 0 0 0 0 0 0 0 0 -0 -0 0 0 0 0 -0 -0 0 0 0 0 0 0 0 0 0 0
-0 -0 -0 -0 -0 -0 -0 -0 0 0 0 0 0 0 0 0 0 0 0 0 0 0 0 -0 -0 -0 -0 -0 0 0 0 0 0 0 0 0 0 0 0 0 0 0 0
-0 0 0 0 -0 0 0 0 0 0 0 0 0 0 0 -0 0 0 0 0 0 -0 -0 -0 -0 0 0 0 0 0 0 0 0 0 0 0 0 0 0 0 0 0 0
-0 -0 0 0 0 0 0 0 0 0 0 0 0 0 0 0 0 0 0 0 -0 0 0 0 0 0 0 0 0 0 0 0 0 0 0 0 0 0 0 0 0 0 0
0 0 0 0 0 0 0 0 0 0 0 0 0 0 0 0 0 0 0 0 0 0 0 0 0 0 0 0 0 0 0 0 0 0 0 0 0 0 0 0 0 0 0
0 0 0 0 0 0 0 0 0 0 0 0 0 0 0 0 0 0 0 0 0 0 0 0 0 0 0 0 0 0 0 0 0 0 0 0 0 0 0 0 0 0 0
0 0 0 0 0 0 0 0 0 0 0 0 0 0 0 0 0 0 0 0 0 0 0 0 0 0 0 0 0 0 0 0 0 0 0 0 0 0 0 0 0 0 0
0 0 0 0 0 0 0 0 0 0 0 0 0 0 0 0 0 0 0 0 0 0 0 0 0 0 0 0 0 0 0 0 0 0 0 0 0 0 0 0 0 0 0
0 0 0 0 0 0 0 0 0 0 0 0 0 0 0 0 0 0 0 0 0 0 0 0 0 0 0 0 0 0 0 0 0 0 0 0 0 0 0 0 0 0 0
0 0 0 0 0 0 0 0 0 0 0 0 0 0 0 0 0 0 0 0 0 0 0 0 0 0 0 0 0 0 0 0 0 0 0 0 0 0 0 0 0 0 0
0 0 0 0 0 0 0 0 0 0 0 0 0 0 0 0 0 0 0 0 0 0 0 0 0 0 0 0 0 0 0 0 0 0 0 0 0 0 0 0 0 0 0
0 0 0 0 0 0 0 0 0 0 0 0 0 0 0 0 0 0 0 0 0 0 0 0 0 0 0 0 0 0 0 0 0 0 0 0 0 0 0 0 0 0 0
0 0 0 0 0 0 0 0 0 0 0 0 0 0 0 0 0 0 0 0 0 0 0 0 0 0 0 0 0 0 0 0 0 0 0 0 0 0 0 0 0 0 0
0 0 0 0 0 0 0 0 0 0 0 0 0 0 0 0 0 0 0 0 0 0 0 0 0 0 0 0 0 0 0 0 0 0 0 0 0 0 0 0 0 0 0
0 0 0 0 0 0 0 0 0 0 0 0 0 0 0 0 0 0 0 0 0 0 0 0 0 0 0 0 0 0 0 0 0 0 0 0 0 0 0 0 0 0 0
0 0 0 0 0 0 0 0 0 0 0 0 0 0 0 0 0 0 0 0 0 0 0 0 0 0 0 0 0 0 0 0 0 0 0 0 0 0 0 0 0 0 0
0 0 0 0 0 0 0 0 0 0 0 0 0 0 0 0 0 0 0 0 0 0 0 0 0 0 0 0 0 0 0 0 0 0 0 0 0 0 0 0 0 0 0
Wind_Speed_500mb
21 24 22 20 19 14 18 21 25 22 22 19 18 17 17 16 17 22 23 25 20 23 25 20 13 17 16 20 22 24 26 25 25 28 31 26 28 26 26 34 25 24 26
30 25 24 22 18 14 17 21 21 20 17 15 15 12 10 7 9 16 22 25 19 11 8 11 15 12 14 16 19 22 24 25 27 31 38 34 25 23 22 26 26 22 21
31 27 26 23 19 16 15 18 23 14 13 12 11 8 5 3 7 14 20 18 18 15 7 8 10 10 11 14 16 19 21 25 27 30 33 18 21 21 21 18 22 20 19
32 28 25 25 20 15 13 16 21 16 10 10 9 5 3 2 11 15 17 16 15 11 8 10 9 8 9 11 13 15 17 19 21 31 19 19 19 20 20 16 15 17 24
30 28 25 24 22 18 13 13 13 12 8 8 7 5 6 6 12 12 11 9 10 8 3 3 4 6 9 7 7 9 13 16 20 22 16 18 14 19 20 16 14 15 14
29 26 25 23 20 18 16 14 15 12 11 11 11 9 9 9 9 10 12 10 4 4 5 2 2 3 5 12 11 11 13 14 21 11 11 15 11 16 20 20 15 11 11
29 25 25 22 18 17 17 16 11 9 11 11 10 10 10 10 9 8 10 11 5 8 6 2 3 5 5 7 11 11 11 11 12 8 8 10 13 13 15 19 20 17 15
28 26 24 22 19 17 16 16 13 12 7 6 5 7 6 6 6 6 5 7 5 1 1 2 1 5 8 10 11 10 9 9 11 9 9 7 10 14 10 12 16 18 19
27 26 24 22 20 19 17 16 15 13 10 6 4 3 2 2 3 2 2 1 2 2 2 1 1 2 6 10 12 12 11 11 8 10 9 7 13 13 12 11 14 17 21
25 23 23 22 20 17 16 14 13 11 10 9 7 6 5 4 3 2 2 3 4 4 3 4 5 6 7 10 13 15 14 14 10 13 11 15 15 14 13 11 10 18 23
26 25 23 22 20 17 11 11 10 9 8 8 9 9 8 5 11 8 9 7 7 7 7 8 8 10 11 12 14 16 16 11 12 12 13 16 17 16 15 15 14 12 18
29 27 24 23 21 20 17 14 11 8 7 6 8 9 7 8 14 14 18 13 14 14 13 13 14 14 14 10 16 19 13 16 14 14 15 17 17 17 16 15 16 16 15
29 26 26 23 22 20 17 15 11 12 8 9 11 8 9 11 14 13 13 16 16 16 14 16 15 15 9 15 13 13 13 15 12 16 18 20 19 18 18 17 17 18 18
33 30 28 27 26 24 19 17 14 14 12 10 11 11 11 11 12 8 12 14 17 19 13 17 15 15 14 16 17 18 17 15 16 15 14 22 18 16 16 14 16 16 16
35 33 30 28 25 23 20 17 16 15 13 11 12 14 13 13 16 14 14 13 13 11 14 16 17 18 18 18 21 22 20 22 22 22 22 25 22 20 20 20 21 24 22
33 32 30 30 28 25 23 21 19 17 16 15 15 16 19 18 19 19 21 23 20 21 16 18 18 25 26 27 32 29 24 25 24 25 26 26 23 22 26 29 30 31 30
33 31 32 31 31 30 27 25 24 22 22 20 20 22 24 24 23 25 32 30 27 27 25 23 26 29 30 31 31 27 27 27 26 27 27 28 30 32 34 30 33 34 36
33 34 33 36 36 34 31 29 28 26 28 27 27 28 30 32 32 31 31 36 24 27 32 28 28 31 27 30 33 31 33 32 31 31 30 32 33 34 36 38 38 38 35
37 36 36 36 42 40 38 34 32 33 35 33 33 34 36 39 40 38 36 34 32 31 31 32 29 27 27 28 30 29 27 32 29 28 33 37 38 35 34 37 38 35 30
39 40 41 41 47 48 48 48 48 48 44 42 39 38 39 42 45 42 40 38 37 36 33 33 29 23 27 29 28 27 31 28 29 22 21 21 26 17 15 23 32 23 22
45 47 48 49 54 54 55 55 56 56 51 50 46 44 42 43 45 43 41 38 36 40 35 29 26 28 22 26 26 15 12 13 14 13 11 9 10 11 16 18 19 18 20
50 54 57 61 61 62 61 59 58 53 53 54 55 49 47 46 43 43 41 36 32 35 35 35 32 25 23 20 15 18 9 5 7 6 16 8 12 15 14 16 18 20 20
45 53 53 62 63 64 64 63 65 66 65 60 58 55 49 45 43 40 39 35 35 36 33 34 32 27 24 21 21 16 7 6 4 13 3 10 15 18 18 16 20 23 23
47 52 58 61 65 66 67 67 68 69 66 62 56 57 49 44 43 40 38 39 41 39 40 36 31 30 27 21 19 17 24 24 8 9 14 18 22 28 30 27 26 27 26
48 55 66 68 66 69 68 64 68 70 66 47 59 52 49 46 43 41 38 37 37 40 39 35 31 30 27 25 26 21 21 22 21 25 23 23 25 30 31 32 29 31 36
35 41 50 59 62 64 68 67 67 66 63 65 59 52 47 46 43 40 38 38 38 40 37 35 32 29 27 26 25 24 23 18 17 24 25 26 32 35 36 41 34 34 38
Wind_Direction_500mb
159 152 143 136 132 114 120 124 125 127 136 138 127 126 126 121 114 103 111 98 106 108 106 112 101 79 62 52 45 44 46 53 59 65 55 60 68 86 88 87 72 64 96
154 148 142 135 134 109 120 132 135 135 146 161 158 138 142 132 144 139 134 113 106 103 113 92 85 69 55 48 44 44 48 56 60 63 55 26 57 66 68 76 65 92 95
147 152 140 146 144 120 104 136 137 139 153 155 154 155 144 119 120 141 154 151 123 110 100 96 85 66 47 36 37 39 43 48 57 70 75 48 41 54 61 67 65 62 82
149 144 147 148 150 137 112 122 141 166 159 159 169 173 145 85 132 138 147 166 183 167 117 90 65 43 28 22 27 34 44 49 56 64 59 60 39 51 55 60 60 64 64
149 147 150 143 146 156 137 127 129 129 154 169 163 163 150 136 122 141 139 112 170 187 160 63 31 12 7 2 22 40 49 59 61 52 45 79 39 41 50 51 51 55 84
151 155 150 147 148 156 154 144 134 111 124 133 128 116 99 101 135 140 162 124 113 178 201 218 268 328 1 45 56 50 51 54 58 40 46 33 29 37 43 40 38 29 19
153 162 156 151 148 149 152 150 134 120 119 122 115 103 88 79 97 135 146 153 141 106 131 129 266 270 292 353 17 31 41 41 66 27 26 32 359 16 41 35 28 20 9
159 163 162 158 154 150 147 149 151 148 144 142 117 113 86 76 72 84 150 177 207 255 30 10 4 286 297 309 332 355 3 11 40 346 346 358 345 359 3 2 17 16 10
161 161 166 165 160 154 151 152 157 162 158 148 162 149 77 75 66 62 67 125 223 206 233 297 349 343 311 319 327 327 331 334 340 306 335 336 323 329 342 330 331 346 355
168 168 171 171 169 166 162 164 167 173 183 193 212 234 241 240 251 253 254 224 242 243 267 301 318 317 328 325 324 330 333 329 337 310 318 290 315 313 306 321 317 318 332
174 176 179 191 178 187 198 187 190 199 209 223 234 240 253 270 292 283 270 277 276 274 277 284 299 314 316 318 329 331 333 349 321 318 312 314 313 316 318 310 316 307 310
181 184 186 190 189 191 190 220 207 237 230 264 283 274 274 231 234 239 261 268 268 271 278 289 295 300 307 335 320 328 349 304 321 313 312 326 322 321 322 320 312 305 288
184 189 187 192 195 199 201 200 210 223 228 230 236 240 257 252 268 275 263 285 270 273 278 291 309 315 300 278 280 297 295 310 310 313 305 317 318 319 320 320 313 308 306
184 190 191 192 192 198 198 203 209 208 215 224 243 255 261 276 277 257 270 266 255 259 248 247 253 256 276 289 291 295 295 300 290 289 300 309 322 324 328 324 324 325 314
190 191 195 193 198 201 203 209 208 216 239 237 240 261 264 255 265 262 254 242 259 269 280 287 294 290 296 295 295 294 294 295 293 298 300 300 312 317 315 317 310 306 306
195 195 197 203 205 210 216 215 221 228 231 248 249 254 268 260 255 257 253 251 256 253 253 265 272 294 309 312 310 298 295 293 297 298 300 314 312 302 293 295 296 297 299
207 202 205 210 215 217 225 227 231 236 242 247 259 271 272 264 262 256 266 269 263 265 266 262 273 282 290 301 307 296 290 291 295 295 300 300 295 296 293 291 292 292 291
215 213 213 217 221 227 229 235 236 238 249 260 266 276 283 279 274 263 254 269 270 265 267 265 271 272 287 292 293 293 287 287 286 290 289 293 290 289 293 286 290 288 292
218 219 219 225 232 234 240 239 241 245 251 257 266 274 283 282 279 267 253 250 251 250 261 265 264 263 278 292 296 296 295 292 291 289 295 293 284 282 286 283 285 287 279
225 226 226 228 234 238 242 246 248 254 258 257 263 270 281 283 282 273 257 246 250 250 252 256 265 272 286 301 297 286 278 276 294 302 289 279 283 299 270 266 284 286 277
232 232 234 235 243 245 247 252 251 253 256 253 257 267 281 287 282 271 259 255 244 248 252 249 256 274 279 272 288 308 290 277 270 260 274 292 288 261 276 277 289 284 276
242 246 243 245 247 251 253 255 253 254 251 252 255 264 278 289 281 270 260 250 242 242 240 246 260 263 269 272 272 280 314 252 280 266 302 264 251 277 260 267 277 279 279
247 249 248 252 252 253 254 250 252 249 251 255 256 262 274 282 278 267 255 244 239 236 238 244 250 259 262 256 267 253 282 252 275 263 210 221 240 258 259 265 278 276 277
256 252 256 257 258 255 254 253 252 252 252 257 257 258 272 276 272 263 251 242 236 235 235 240 251 257 264 252 250 254 241 253 253 251 265 269 266 281 275 285 280 285 282
253 253 261 261 258 258 257 255 250 248 247 236 251 257 268 270 264 256 249 239 233 231 235 244 253 257 258 253 256 250 245 237 247 251 270 264 274 278 278 274 271 280 283
269 270 269 266 262 255 252 250 246 246 245 247 250 258 265 263 257 250 245 237 233 233 238 247 255 252 250 251 257 259 258 241 230 236 254 266 271 272 276 273 276 278 284
Wind_Speed_850mb
21 24 22 20 19 14 18 21 25 22 22 19 18 17 17 16 17 22 23 25 20 23 25 20 13 17 16 20 22 24 26 25 25 28 31 26 28 26 26 34 25 24 26
30 25 24 22 18 14 17 21 21 20 17 15 15 12 10 7 9 16 22 25 19 11 8 11 15 12 14 16 19 22 24 25 27 31 38 34 25 23 22 26 26 22 21
31 27 26 23 19 16 15 18 23 14 13 12 11 8 5 3 7 14 20 18 18 15 7 8 10 10 11 14 16 19 21 25 27 30 33 18 21 21 21 18 22 20 19
32 28 25 25 20 15 13 16 21 16 10 10 9 5 3 2 11 15 17 16 15 11 8 10 9 8 9 11 13 15 17 19 21 31 19 19 19 20 20 16 15 17 24
30 28 25 24 22 18 13 13 13 12 8 8 7 5 6 6 12 12 11 9 10 8 3 3 4 6 9 7 7 9 13 16 20 22 16 18 14 19 20 16 14 15 14
29 26 25 23 20 18 16 14 15 12 11 11 11 9 9 9 9 10 12 10 4 4 5 2 2 3 5 12 11 11 13 14 21 11 11 15 11 16 20 20 15 11 11
29 25 25 22 18 17 17 16 11 9 11 11 10 10 10 10 9 8 10 11 5 8 6 2 3 5 5 7 11 11 11 11 12 8 8 10 13 13 15 19 20 17 15
28 26 24 22 19 17 16 16 13 12 7 6 5 7 6 6 6 6 5 7 5 1 1 2 1 5 8 10 11 10 9 9 11 9 9 7 10 14 10 12 16 18 19
27 26 24 22 20 19 17 16 15 13 10 6 4 3 2 2 3 2 2 1 2 2 2 1 1 2 6 10 12 12 11 11 8 10 9 7 13 13 12 11 14 17 21
25 23 23 22 20 17 16 14 13 11 10 9 7 6 5 4 3 2 2 3 4 4 3 4 5 6 7 10 13 15 14 14 10 13 11 15 15 14 13 11 10 18 23
26 25 23 22 20 17 11 11 10 9 8 8 9 9 8 5 11 8 9 7 7 7 7 8 8 10 11 12 14 16 16 11 12 12 13 16 17 16 15 15 14 12 18
29 27 24 23 21 20 17 14 11 8 7 6 8 9 7 8 14 14 18 13 14 14 13 13 14 14 14 10 16 19 13 16 14 14 15 17 17 17 16 15 16 16 15
29 26 26 23 22 20 17 15 11 12 8 9 11 8 9 11 14 13 13 16 16 16 14 16 15 15 9 15 13 13 13 15 12 16 18 20 19 18 18 17 17 18 18
33 30 28 27 26 24 19 17 14 14 12 10 11 11 11 11 12 8 12 14 17 19 13 17 15 15 14 16 17 18 17 15 16 15 14 22 18 16 16 14 16 16 16
35 33 30 28 25 23 20 17 16 15 13 11 12 14 13 13 16 14 14 13 13 11 14 16 17 18 18 18 21 22 20 22 22 22 22 25 22 20 20 20 21 24 22
33 32 30 30 28 25 23 21 19 17 16 15 15 16 19 18 19 19 21 23 20 21 16 18 18 25 26 27 32 29 24 25 24 25 26 26 23 22 26 29 30 31 30
33 31 32 31 31 30 27 25 24 22 22 20 20 22 24 24 23 25 32 30 27 27 25 23 26 29 30 31 31 27 27 27 26 27 27 28 30 32 34 30 33 34 36
33 34 33 36 36 34 31 29 28 26 28 27 27 28 30 32 32 31 31 36 24 27 32 28 28 31 27 30 33 31 33 32 31 31 30 32 33 34 36 38 38 38 35
37 36 36 36 42 40 38 34 32 33 35 33 33 34 36 39 40 38 36 34 32 31 31 32 29 27 27 28 30 29 27 32 29 28 33 37 38 35 34 37 38 35 30
39 40 41 41 47 48 48 48 48 48 44 42 39 38 39 42 45 42 40 38 37 36 33 33 29 23 27 29 28 27 31 28 29 22 21 21 26 17 15 23 32 23 22
45 47 48 49 54 54 55 55 56 56 51 50 46 44 42 43 45 43 41 38 36 40 35 29 26 28 22 26 26 15 12 13 14 13 11 9 10 11 16 18 19 18 20
50 54 57 61 61 62 61 59 58 53 53 54 55 49 47 46 43 43 41 36 32 35 35 35 32 25 23 20 15 18 9 5 7 6 16 8 12 15 14 16 18 20 20
45 53 53 62 63 64 64 63 65 66 65 60 58 55 49 45 43 40 39 35 35 36 33 34 32 27 24 21 21 16 7 6 4 13 3 10 15 18 18 16 20 23 23
47 52 58 61 65 66 67 67 68 69 66 62 56 57 49 44 43 40 38 39 41 39 40 36 31 30 27 21 19 17 24 24 8 9 14 18 22 28 30 27 26 27 26
48 55 66 68 66 69 68 64 68 70 66 47 59 52 49 46 43 41 38 37 37 40 39 35 31 30 27 25 26 21 21 22 21 25 23 23 25 30 31 32 29 31 36
35 41 50 59 62 64 68 67 67 66 63 65 59 52 47 46 43 40 38 38 38 40 37 35 32 29 27 26 25 24 23 18 17 24 25 26 32 35 36 41 34 34 38
Wind_Direction_850mb
159 152 143 136 132 114 120 124 125 127 136 138 127 126 126 121 114 103 111 98 106 108 106 112 101 79 62 52 45 44 46 53 59 65 55 60 68 86 88 87 72 64 96
154 148 142 135 134 109 120 132 135 135 146 161 158 138 142 132 144 139 134 113 106 103 113 92 85 69 55 48 44 44 48 56 60 63 55 26 57 66 68 76 65 92 95
147 152 140 146 144 120 104 136 137 139 153 155 154 155 144 119 120 141 154 151 123 110 100 96 85 66 47 36 37 39 43 48 57 70 75 48 41 54 61 67 65 62 82
149 144 147 148 150 137 112 122 141 166 159 159 169 173 145 85 132 138 147 166 183 167 117 90 65 43 28 22 27 34 44 49 56 64 59 60 39 51 55 60 60 64 64
149 147 150 143 146 156 137 127 129 129 154 169 163 163 150 136 122 141 139 112 170 187 160 63 31 12 7 2 22 40 49 59 61 52 45 79 39 41 50 51 51 55 84
151 155 150 147 148 156 154 144 134 111 124 133 128 116 99 101 135 140 162 124 113 178 201 218 268 328 1 45 56 50 51 54 58 40 46 33 29 37 43 40 38 29 19
153 162 156 151 148 149 152 150 134 120 119 122 115 103 88 79 97 135 146 153 141 106 131 129 266 270 292 353 17 31 41 41 66 27 26 32 359 16 41 35 28 20 9
159 163 162 158 154 150 147 149 151 148 144 142 117 113 86 76 72 84 150 177 207 255 30 10 4 286 297 309 332 355 3 11 40 346 346 358 345 359 3 2 17 16 10
161 161 166 165 160 154 151 152 157 162 158 148 162 149 77 75 66 62 67 125 223 206 233 297 349 343 311 319 327 327 331 334 340 306 335 336 323 329 342 330 331 346 355
168 168 171 171 169 166 162 164 167 173 183 193 212 234 241 240 251 253 254 224 242 243 267 301 318 317 328 325 324 330 333 329 337 310 318 290 315 313 306 321 317 318 332
174 176 179 191 178 187 198 187 190 199 209 223 234 240 253 270 292 283 270 277 276 274 277 284 299 314 316 318 329 331 333 349 321 318 312 314 313 316 318 310 316 307 310
181 184 186 190 189 191 190 220 207 237 230 264 283 274 274 231 234 239 261 268 268 271 278 289 295 300 307 335 320 328 349 304 321 313 312 326 322 321 322 320 312 305 288
184 189 187 192 195 199 201 200 210 223 228 230 236 240 257 252 268 275 263 285 270 273 278 291 309 315 300 278 280 297 295 310 310 313 305 317 318 319 320 320 313 308 306
184 190 191 192 192 198 198 203 209 208 215 224 243 255 261 276 277 257 270 266 255 259 248 247 253 256 276 289 291 295 295 300 290 289 300 309 322 324 328 324 324 325 314
190 191 195 193 198 201 203 209 208 216 239 237 240 261 264 255 265 262 254 242 259 269 280 287 294 290 296 295 295 294 294 295 293 298 300 300 312 317 315 317 310 306 306
195 195 197 203 205 210 216 215 221 228 231 248 249 254 268 260 255 257 253 251 256 253 253 265 272 294 309 312 310 298 295 293 297 298 300 314 312 302 293 295 296 297 299
207 202 205 210 215 217 225 227 231 236 242 247 259 271 272 264 262 256 266 269 263 265 266 262 273 282 290 301 307 296 290 291 295 295 300 300 295 296 293 291 292 292 291
215 213 213 217 221 227 229 235 236 238 249 260 266 276 283 279 274 263 254 269 270 265 267 265 271 272 287 292 293 293 287 287 286 290 289 293 290 289 293 286 290 288 292
218 219 219 225 232 234 240 239 241 245 251 257 266 274 283 282 279 267 253 250 251 250 261 265 264 263 278 292 296 296 295 292 291 289 295 293 284 282 286 283 285 287 279
225 226 226 228 234 238 242 246 248 254 258 257 263 270 281 283 282 273 257 246 250 250 252 256 265 272 286 301 297 286 278 276 294 302 289 279 283 299 270 266 284 286 277
232 232 234 235 243 245 247 252 251 253 256 253 257 267 281 287 282 271 259 255 244 248 252 249 256 274 279 272 288 308 290 277 270 260 274 292 288 261 276 277 289 284 276
242 246 243 245 247 251 253 255 253 254 251 252 255 264 278 289 281 270 260 250 242 242 240 246 260 263 269 272 272 280 314 252 280 266 302 264 251 277 260 267 277 279 279
247 249 248 252 252 253 254 250 252 249 251 255 256 262 274 282 278 267 255 244 239 236 238 244 250 259 262 256 267 253 282 252 275 263 210 221 240 258 259 265 278 276 277
256 252 256 257 258 255 254 253 252 252 252 257 257 258 272 276 272 263 251 242 236 235 235 240 251 257 264 252 250 254 241 253 253 251 265 269 266 281 275 285 280 285 282
253 253 261 261 258 258 257 255 250 248 247 236 251 257 268 270 264 256 249 239 233 231 235 244 253 257 258 253 256 250 245 237 247 251 270 264 274 278 278 274 271 280 283
269 270 269 266 262 255 252 250 246 246 245 247 250 258 265 263 257 250 245 237 233 233 238 247 255 252 250 251 257 259 258 241 230 236 254 266 271 272 276 273 276 278 284